Weather History for Cold Bay, AK

Change the Weather History Date:

Saturday, July 20, 2013

  Actual Average Record
Temperature  
Mean Temperature 55 °F 51 °F  
Max Temperature 58 °F 56 °F 68 °F (1977)
Min Temperature 51 °F 47 °F 40 °F (1971)
Degree Days  
Heating Degree Days 10 14  
Month to date heating degree days 245 294  
Since 1 June heating degree days 754 856  
Since 1 July heating degree days 245 294  
Cooling Degree Days 0    
Month to date cooling degree days 0  
Year to date cooling degree days 0  
Since 1 June cooling degree days 0  
Growing Degree Days 4 (Base 50)    
Moisture  
Dew Point 52 °F    
Average Humidity 93    
Maximum Humidity 100    
Minimum Humidity 82    
Precipitation  
Precipitation 0.24 in 0.09 in 0.53 in (1996)
Month to date precipitation 2.48 1.52  
Year to date precipitation 20.24 18.10  
Snow  
Snow 0.00 in 0.00 in 0.00 in (2014)
Month to date snowfall 0.0 0.0  
Since 1 June snowfall 0.0 0.0  
Since 1 July snowfall 0.0 0.0  
Snow Depth 0.00 in    
Sea Level Pressure  
Sea Level Pressure 30.42 in    
Wind  
Wind Speed 14 mph (SSE)    
Max Wind Speed 24 mph    
Max Gust Speed 30 mph    
Visibility 6 miles    
Events Fog , Rain    
T = Trace of Precipitation, MM = Missing Value Source: NWS Daily Summary

Daily Weather History Graph

Daily Weather History Graph

Search for Another Location

Airport:

Trip Planner

Search our weather history database for the weather conditions in past years. The results will help you decide how hot, cold, wet, or windy it might be!

Date:

Astronomy

Jul. 20, 2013 Rise Set
Actual Time 6:39 AM AKDT 11:14 PM AKDT
Civil Twilight 5:47 AM AKDT 12:05 AM AKDT
Nautical Twilight 4:23 AM AKDT 1:27 AM AKDT
Astronomical Twilight Sun does not rise Sun does not rise
Moon 9:25 PM AKDT (7/20) 4:33 AM AKDT (7/20)
Length of Visible Light 18h 17m
Length of Day
16h 35m
Waxing Gibbous, 94% of the Moon is Illuminated
Jul 20
Waxing Gibbous
Jul 22
Full
Jul 29
Last Quarter
Aug 6
New
Aug 14
First Quarter

Hourly Weather History & Observations

Time (AKDT) Temp. Dew Point Humidity Pressure Visibility Wind Dir Wind Speed Gust Speed Precip Events Conditions
12:00 AM 51.8 °F 50.0 °F 94% 30.47 in 2.5 mi SSE 17.3 mph - N/A   Mostly Cloudy
12:08 AM 51.8 °F 50.0 °F 94% 30.47 in 1.0 mi SSE 18.4 mph - N/A   Mostly Cloudy
12:16 AM 51.8 °F 51.8 °F 100% 30.48 in 0.8 mi SSE 17.3 mph - N/A   Mist
12:53 AM 52.0 °F 51.1 °F 97% 30.49 in 0.5 mi SSE 10.4 mph - N/A Fog Fog
1:23 AM 51.8 °F 51.8 °F 100% 30.48 in 0.5 mi SE 11.5 mph - N/A Fog Fog
1:53 AM 52.0 °F 51.1 °F 97% 30.48 in 0.5 mi SE 12.7 mph - N/A Fog Fog
2:53 AM 52.0 °F 51.1 °F 97% 30.48 in 0.5 mi SE 11.5 mph - N/A Fog Fog
3:00 AM 51.8 °F 51.8 °F 100% 30.47 in 0.5 mi SE 13.8 mph - N/A Fog Fog
3:28 AM 51.8 °F 50.0 °F 94% 30.47 in 0.5 mi SSE 12.7 mph - N/A Fog Fog
3:53 AM 51.1 °F 50.0 °F 96% 30.47 in 0.5 mi SE 12.7 mph - N/A Fog Fog
4:24 AM 51.8 °F 50.0 °F 94% 30.47 in 1.5 mi SE 10.4 mph - N/A   Overcast
4:28 AM 51.8 °F 50.0 °F 94% 30.46 in 3.0 mi SE 11.5 mph - N/A   Mostly Cloudy
4:44 AM 51.8 °F 50.0 °F 94% 30.46 in 8.0 mi SE 10.4 mph - N/A   Scattered Clouds
4:53 AM 51.1 °F 48.9 °F 92% 30.46 in 8.0 mi ESE 11.5 mph - N/A   Partly Cloudy
5:53 AM 52.0 °F 50.0 °F 93% 30.45 in 10.0 mi SE 13.8 mph - N/A   Mostly Cloudy
6:53 AM 52.0 °F 50.0 °F 93% 30.45 in 10.0 mi SE 10.4 mph - N/A   Mostly Cloudy
7:53 AM 53.1 °F 51.1 °F 93% 30.43 in 10.0 mi SSE 18.4 mph - N/A   Mostly Cloudy
8:53 AM 55.9 °F 52.0 °F 87% 30.45 in 10.0 mi SE 17.3 mph - N/A   Mostly Cloudy
9:53 AM 55.0 °F 51.1 °F 86% 30.44 in 10.0 mi SSE 18.4 mph - N/A   Overcast
10:53 AM 55.9 °F 51.1 °F 84% 30.45 in 10.0 mi SSE 18.4 mph 25.3 mph 0.00 in Rain Light Rain
11:53 AM 55.0 °F 52.0 °F 89% 30.44 in 10.0 mi SE 20.7 mph - 0.00 in Rain Light Rain
12:21 PM 55.4 °F 51.8 °F 88% 30.44 in 10.0 mi SE 20.7 mph 26.5 mph 0.00 in   Overcast
12:53 PM 55.0 °F 52.0 °F 89% 30.44 in 10.0 mi SE 18.4 mph 24.2 mph 0.00 in Rain Light Rain
1:53 PM 54.0 °F 52.0 °F 93% 30.44 in 7.0 mi SE 13.8 mph - 0.06 in Rain Light Rain
2:53 PM 55.0 °F 53.1 °F 93% 30.43 in 3.0 mi SE 17.3 mph - 0.13 in Rain Rain
3:53 PM 55.9 °F 54.0 °F 93% 30.40 in 10.0 mi SSE 19.6 mph 28.8 mph 0.05 in   Overcast
4:53 PM 57.0 °F 54.0 °F 89% 30.38 in 10.0 mi SSE 21.9 mph 29.9 mph N/A   Overcast
5:53 PM 55.9 °F 53.1 °F 90% 30.36 in 10.0 mi SSE 23.0 mph 31.1 mph 0.00 in   Overcast
6:34 PM 55.4 °F 51.8 °F 88% 30.36 in 10.0 mi ESE 17.3 mph - N/A   Overcast
6:46 PM 55.4 °F 51.8 °F 88% 30.37 in 10.0 mi SE 18.4 mph - N/A   Overcast
6:53 PM 55.0 °F 53.1 °F 93% 30.37 in 10.0 mi SE 17.3 mph - N/A   Overcast
7:24 PM 55.4 °F 51.8 °F 88% 30.37 in 10.0 mi SSE 16.1 mph - N/A   Overcast
7:53 PM 54.0 °F 52.0 °F 93% 30.37 in 10.0 mi SSE 13.8 mph 19.6 mph N/A   Overcast
8:25 PM 53.6 °F 51.8 °F 94% 30.37 in 10.0 mi SE 11.5 mph - N/A   Overcast
8:53 PM 54.0 °F 52.0 °F 93% 30.38 in 4.0 mi SSE 8.1 mph - 0.00 in Rain Light Rain
9:03 PM 53.6 °F 51.8 °F 94% 30.38 in 2.5 mi South 6.9 mph - 0.00 in Rain Light Rain
9:14 PM 53.6 °F 53.6 °F 100% 30.38 in 4.0 mi South 5.8 mph - 0.00 in Rain Light Rain
9:42 PM 55.4 °F 53.6 °F 94% 30.37 in 4.0 mi South 4.6 mph - 0.01 in Rain Light Rain
9:53 PM 55.9 °F 54.0 °F 93% 30.38 in 4.0 mi SW 3.5 mph - 0.01 in Rain Light Rain
10:25 PM 57.2 °F 55.4 °F 94% 30.38 in 7.0 mi WNW 10.4 mph - 0.00 in   Overcast
10:53 PM 55.9 °F 54.0 °F 93% 30.38 in 3.0 mi WNW 6.9 mph - 0.00 in   Overcast
11:26 PM 55.4 °F 53.6 °F 94% 30.38 in 6.0 mi WNW 6.9 mph - N/A   Overcast
11:42 PM 55.4 °F 53.6 °F 94% 30.38 in 8.0 mi WNW 12.7 mph - N/A   Overcast
11:53 PM 55.9 °F 54.0 °F 93% 30.38 in 3.0 mi WNW 9.2 mph - N/A   Overcast